FW8870 Weather Reports


Display with metric or nautical units.
time (UTC)temp
F
wind
direction
speed
MPH
gust
MPH
rain 1hr
in
rain 24hr
in
rain mn
in
humidity
%
barometer
mb
20260902061007 65 35 3.0 5.0 0.00 0.00 0.00 78 1009.9
20260902060503 65 305 4.0 6.0 0.00 0.00 0.00 78 1009.7
20260902055958 65 197 7.0 10.0 0.00 0.00 0.00 77 1009.8
20260902055455 65 100 3.0 3.0 0.00 0.00 0.00 78 1009.9
20260902054950 64 274 0.0 1.0 0.00 0.00 0.00 79 1010.0
20260902054450 65 201 4.0 5.0 0.00 0.00 0.00 79 1010.0
20260902053946 65 347 3.0 5.0 0.00 0.00 0.00 78 1010.1
20260902053441 65 54 1.0 2.0 0.00 0.00 0.00 79 1009.9
20260902052940 65 15 0.0 0.0 0.00 0.00 0.00 80 1010.1
20260902052435 65 315 1.0 1.0 0.00 0.00 0.00 79 1010.0
20260902051930 65 150 2.0 6.0 0.00 0.00 0.00 79 1010.0
20260902051431 65 356 3.0 5.0 0.00 0.00 0.00 79 1010.2
20260902050929 65 226 1.0 1.0 0.00 0.00 0.00 79 1010.0
20260902050423 65 317 3.0 5.0 0.00 0.00 0.00 79 1010.2
20260902045918 65 252 2.0 2.0 0.00 0.00 0.00 79 1010.4
20260902045414 65 118 6.0 7.0 0.00 0.00 0.00 80 1010.2
20260902044910 65 154 5.0 6.0 0.00 0.00 0.00 79 1010.3
20260902044405 65 58 2.0 3.0 0.00 0.00 0.00 81 1010.2
20260902043901 65 48 1.0 2.0 0.00 0.00 0.00 81 1010.0
20260902043356 65 23 4.0 5.0 0.00 0.00 0.00 81 1010.2
20260902042851 65 62 4.0 8.0 0.00 0.00 0.00 81 1010.1
20260902042350 64 6 2.0 6.0 0.00 0.00 0.00 82 1010.2
20260902041846 64 359 2.0 2.0 0.00 0.00 0.00 83 1010.0
20260902041346 65 336 1.0 2.0 0.00 0.00 0.00 82 1010.4
20260902040844 65 336 1.0 2.0 0.00 0.00 0.00 82 1010.0
20260902040340 65 328 0.0 0.0 0.00 0.00 0.00 82 1010.2
20260902035838 65 63 1.0 1.0 0.00 0.00 0.00 82 1010.0
20260902035334 65 215 1.0 2.0 0.00 0.00 0.00 82 1010.2
20260902034833 65 121 1.0 1.0 0.00 0.00 0.00 82 1010.1
20260902034328 65 186 2.0 3.0 0.00 0.00 0.00 82 1010.1
20260902033826 65 36 0.0 1.0 0.00 0.00 0.00 82 1010.0
20260902033322 65 356 0.0 0.0 0.00 0.00 0.00 81 1010.0
20260902032821 65 69 3.0 3.0 0.00 0.00 0.00 82 1010.0
20260902032315 65 17 2.0 3.0 0.00 0.00 0.00 81 1010.2
20260902031815 65 55 3.0 5.0 0.00 0.00 0.00 81 1009.9
20260902031312 65 146 5.0 7.0 0.00 0.00 0.00 80 1009.7
20260902030807 65 190 1.0 2.0 0.00 0.00 0.00 80 1009.9
20260902030301 66 187 4.0 6.0 0.00 0.00 0.00 80 1010.0
20260902025801 65 141 3.0 3.0 0.00 0.00 0.00 80 1010.0
20260902025256 66 155 1.0 2.0 0.00 0.00 0.00 79 1010.0
20260902024750 66 33 2.0 2.0 0.00 0.00 0.00 80 1010.1
20260902024246 66 1 4.0 5.0 0.00 0.00 0.00 79 1010.2
20260902023742 65 140 3.0 3.0 0.00 0.00 0.00 80 1010.1
20260902023237 65 61 3.0 5.0 0.00 0.00 0.00 81 1010.2
20260902022736 65 96 4.0 5.0 0.00 0.00 0.00 81 1010.1
20260902022232 66 180 3.0 3.0 0.00 0.00 0.00 80 1010.1
20260902021728 66 115 2.0 3.0 0.00 0.00 0.00 78 1010.0
20260902021227 66 174 4.0 5.0 0.00 0.00 0.00 79 1010.1
20260902020723 66 181 5.0 8.0 0.00 0.00 0.00 79 1010.0
20260902020219 66 137 3.0 3.0 0.00 0.00 0.00 80 1010.2
20260902015714 66 135 3.0 5.0 0.00 0.00 0.00 78 1010.5
20260902015211 67 111 1.0 1.0 0.00 0.00 0.00 78 1010.3
20260902014706 67 303 0.0 1.0 0.00 0.00 0.00 78 1010.2
20260902014202 67 250 2.0 2.0 0.00 0.00 0.00 77 1010.1
20260902013701 67 192 2.0 2.0 0.00 0.00 0.00 76 1010.2
20260902013156 68 24 1.0 2.0 0.00 0.00 0.00 76 1010.3
20260902012652 68 274 1.0 2.0 0.00 0.00 0.00 76 1010.0
20260902012148 68 207 2.0 2.0 0.00 0.00 0.00 75 1010.2
20260902011643 68 333 1.0 2.0 0.00 0.00 0.00 75 1010.0
20260902011143 68 85 2.0 2.0 0.00 0.00 0.00 75 1010.1
20260902010642 68 241 2.0 2.0 0.00 0.00 0.00 75 1009.9
20260902010138 67 343 0.0 0.0 0.00 0.00 0.00 75 1010.0
20260902005636 67 276 0.0 1.0 0.00 0.00 0.00 75 1010.2
20260902005132 68 336 1.0 2.0 0.00 0.00 0.00 74 1010.2
20260902004631 68 352 0.0 1.0 0.00 0.00 0.00 74 1009.9
20260902004126 68 295 1.0 1.0 0.00 0.00 0.00 73 1009.7
20260902003622 68 58 1.0 2.0 0.00 0.00 0.00 73 1009.9
20260902003117 68 289 0.0 1.0 0.00 0.00 0.00 74 1009.9
20260902002613 68 347 0.0 0.0 0.00 0.00 0.00 73 1009.8
20260902002108 68 325 0.0 0.0 0.00 0.00 0.00 73 1009.9
20260902001603 68 1 2.0 3.0 0.00 0.00 0.00 74 1009.8
20260902001057 68 323 1.0 1.0 0.00 0.00 0.00 73 1009.9
20260902000552 68 346 0.0 0.0 0.00 0.00 0.00 74 1009.8
20260902000048 68 184 4.0 5.0 0.00 0.00 0.00 74 1009.7
20260901235541 68 301 0.0 0.0 0.00 0.00 0.00 73 1009.9
20260901235038 68 349 1.0 1.0 0.00 0.00 0.00 74 1009.8
20260901234536 68 169 3.0 3.0 0.00 0.00 0.00 74 1009.8
20260901234031 68 214 1.0 1.0 0.00 0.00 0.00 74 1009.8
20260901233526 68 239 6.0 7.0 0.00 0.00 0.00 73 1009.8
20260901233022 68 244 0.0 1.0 0.00 0.00 0.00 72 1009.9
20260901232517 69 172 3.0 3.0 0.00 0.00 0.00 74 1009.7
20260901232012 69 30 1.0 1.0 0.00 0.00 0.00 73 1009.8
20260901231508 69 173 1.0 1.0 0.00 0.00 0.00 73 1009.9
20260901231005 69 82 3.0 3.0 0.00 0.00 0.00 71 1009.7
20260901230504 69 175 4.0 6.0 0.00 0.00 0.00 72 1009.4
20260901225959 69 138 3.0 6.0 0.00 0.00 0.00 72 1009.5
20260901225454 69 153 3.0 5.0 0.00 0.00 0.00 73 1009.2
20260901224949 69 322 0.0 0.0 0.00 0.00 0.00 73 1009.6
20260901224444 69 247 4.0 7.0 0.00 0.00 0.00 73 1009.4
20260901223941 69 207 6.0 9.0 0.00 0.00 0.00 72 1009.4
20260901223436 69 91 1.0 2.0 0.00 0.00 0.00 72 1009.3
20260901222931 69 196 9.0 14.0 0.00 0.00 0.00 72 1009.4
20260901222428 69 34 1.0 2.0 0.00 0.00 0.00 72 1009.4
20260901221924 69 135 5.0 7.0 0.00 0.00 0.00 71 1009.3
20260901221419 70 40 4.0 6.0 0.00 0.00 0.00 72 1009.3
20260901220914 70 224 3.0 5.0 0.00 0.00 0.00 72 1009.4
20260901220413 70 126 4.0 7.0 0.00 0.00 0.00 72 1009.5
20260901215912 70 304 1.0 2.0 0.00 0.00 0.00 72 1009.5
20260901215410 70 191 4.0 6.0 0.00 0.00 0.00 73 1009.3
20260901214910 70 115 5.0 7.0 0.00 0.00 0.00 71 1009.5
20260901214409 70 223 1.0 2.0 0.00 0.00 0.00 70 1009.3
20260901213908 71 139 3.0 5.0 0.00 0.00 0.00 69 1009.4
20260901213403 71 137 4.0 5.0 0.00 0.00 0.00 69 1009.5
20260901212902 72 158 2.0 2.0 0.00 0.00 0.00 68 1009.5
20260901212358 72 209 6.0 8.0 0.00 0.00 0.00 65 1009.3
20260901211854 73 39 2.0 3.0 0.00 0.00 0.00 64 1009.1
20260901211350 73 166 4.0 6.0 0.00 0.00 0.00 65 1009.3
20260901210846 74 110 4.0 5.0 0.00 0.00 0.00 65 1009.2
20260901210341 74 229 2.0 5.0 0.00 0.00 0.00 65 1009.0
20260901205837 74 178 2.0 5.0 0.00 0.00 0.00 67 1009.4
20260901205337 74 302 0.0 1.0 0.00 0.00 0.00 65 1009.4
20260901204832 73 101 5.0 7.0 0.00 0.00 0.00 65 1009.4
20260901204329 74 320 0.0 1.0 0.00 0.00 0.00 66 1009.6
20260901203824 74 268 1.0 1.0 0.00 0.00 0.00 68 1009.4
20260901203323 73 182 4.0 5.0 0.00 0.00 0.00 63 1009.3
20260901202818 73 25 0.0 0.0 0.00 0.00 0.00 65 1009.5
20260901202313 73 289 3.0 3.0 0.00 0.00 0.00 64 1009.6
20260901201809 75 190 1.0 1.0 0.00 0.00 0.00 63 1009.4
20260901201309 74 324 3.0 3.0 0.00 0.00 0.00 62 1009.6
20260901200809 73 316 1.0 2.0 0.00 0.00 0.00 64 1009.3
20260901200304 73 49 2.0 3.0 0.00 0.00 0.00 63 1009.4
20260901195802 73 12 3.0 3.0 0.00 0.00 0.00 64 1009.6
20260901195255 74 35 2.0 3.0 0.00 0.00 0.00 61 1009.4
20260901194751 73 319 0.0 0.0 0.00 0.00 0.00 62 1009.6
20260901194246 73 323 0.0 0.0 0.00 0.00 0.00 64 1009.5
20260901193742 73 198 1.0 2.0 0.00 0.00 0.00 64 1009.5
20260901193240 73 284 1.0 2.0 0.00 0.00 0.00 68 1009.9
20260901192736 74 250 1.0 2.0 0.00 0.00 0.00 64 1009.7
20260901192231 73 253 2.0 2.0 0.00 0.00 0.00 66 1009.6
20260901191727 72 316 0.0 0.0 0.00 0.00 0.00 69 1009.8
20260901191223 71 13 1.0 1.0 0.00 0.00 0.00 68 1009.7
20260901190718 72 303 0.0 1.0 0.00 0.00 0.00 66 1009.8
20260901190218 72 1 0.0 0.0 0.00 0.00 0.00 68 1009.8
20260901185716 72 222 1.0 1.0 0.00 0.00 0.00 68 1009.8
20260901185215 72 40 2.0 2.0 0.00 0.00 0.00 67 1009.8
20260901184711 72 26 2.0 3.0 0.00 0.00 0.00 67 1010.0
20260901184206 72 110 2.0 2.0 0.00 0.00 0.00 69 1010.2
20260901183702 71 280 0.0 0.0 0.00 0.00 0.00 70 1010.1
20260901183201 70 227 2.0 2.0 0.00 0.00 0.00 72 1010.3
20260901182658 71 340 4.0 7.0 0.00 0.00 0.00 69 1010.3
20260901182156 71 308 3.0 3.0 0.00 0.00 0.00 71 1010.3
20260901181652 71 197 3.0 3.0 0.00 0.00 0.00 72 1010.2
20260901181146 71 1 3.0 3.0 0.00 0.00 0.00 72 1010.4
20260901180646 71 168 3.0 3.0 0.00 0.00 0.00 72 1010.2
20260901180139 71 12 4.0 5.0 0.00 0.00 0.00 70 1010.3
20260901175638 72 303 0.0 0.0 0.00 0.00 0.00 72 1010.4
20260901175133 72 233 1.0 1.0 0.00 0.00 0.00 71 1010.3
20260901174629 71 101 3.0 3.0 0.00 0.00 0.00 71 1010.5
20260901174125 71 202 2.0 3.0 0.00 0.00 0.00 73 1010.3
20260901173620 71 280 2.0 2.0 0.00 0.00 0.00 73 1010.6
20260901173115 70 6 2.0 2.0 0.00 0.00 0.00 73 1010.3
20260901172611 69 31 2.0 2.0 0.00 0.00 0.00 72 1010.5
20260901172109 70 352 0.0 0.0 0.00 0.00 0.00 75 1010.5
20260901171608 70 13 1.0 1.0 0.00 0.00 0.00 72 1010.5
20260901171102 70 12 0.0 0.0 0.00 0.00 0.00 73 1010.6
20260901170601 67 356 0.0 0.0 0.00 0.00 0.00 77 1010.8
20260901170056 69 283 1.0 1.0 0.00 0.00 0.00 75 1010.8
20260901165550 69 122 2.0 2.0 0.00 0.00 0.00 76 1010.6
20260901165045 68 56 1.0 1.0 0.00 0.00 0.00 77 1010.7
20260901164541 67 168 1.0 2.0 0.00 0.00 0.00 79 1010.7
20260901164036 66 217 0.0 0.0 0.00 0.00 0.00 81 1011.0
20260901163532 66 64 1.0 1.0 0.00 0.00 0.00 83 1010.8
20260901163030 65 170 4.0 6.0 0.00 0.00 0.00 83 1010.8
20260901162526 64 252 0.0 0.0 0.00 0.00 0.00 87 1011.1
20260901162025 64 209 1.0 1.0 0.00 0.00 0.00 88 1011.0
20260901161524 64 4 1.0 2.0 0.00 0.00 0.00 87 1011.1
20260901161024 64 125 2.0 2.0 0.00 0.00 0.00 84 1011.0
20260901160520 64 195 2.0 3.0 0.00 0.00 0.00 86 1010.8
20260901160015 63 19 2.0 3.0 0.00 0.00 0.00 87 1010.7
20260901155514 62 149 3.0 3.0 0.00 0.00 0.00 88 1010.8
20260901155010 62 164 4.0 5.0 0.00 0.00 0.00 90 1011.1
20260901154509 61 142 4.0 5.0 0.00 0.00 0.00 90 1010.8
20260901154004 60 166 3.0 3.0 0.00 0.00 0.00 93 1011.2
20260901153459 59 284 1.0 2.0 0.00 0.00 0.00 98 1011.0
20260901152958 58 342 0.0 0.0 0.00 0.00 0.00 99 1011.1
20260901152453 57 341 0.0 1.0 0.00 0.00 0.00 99 1011.1
20260901151952 57 290 0.0 1.0 0.00 0.00 0.00 99 1011.4
20260901151448 56 1 1.0 2.0 0.00 0.00 0.00 99 1011.4
20260901150947 56 236 3.0 3.0 0.00 0.00 0.00 99 1011.4
20260901150445 55 276 0.0 1.0 0.00 0.00 0.00 99 1011.4
20260901145942 54 329 0.0 0.0 0.00 0.00 0.00 99 1011.5
20260901145437 54 329 0.0 0.0 0.00 0.00 0.00 99 1011.3
20260901144931 54 280 3.0 3.0 0.00 0.00 0.00 99 1011.5
20260901144427 53 223 3.0 3.0 0.00 0.00 0.00 99 1011.3
20260901143922 53 353 0.0 0.0 0.00 0.00 0.00 99 1011.0
20260901143419 53 345 0.0 0.0 0.00 0.00 0.00 99 1011.3
20260901142915 53 346 0.0 0.0 0.00 0.00 0.00 99 1011.2
20260901142414 53 319 0.0 0.0 0.00 0.00 0.00 99 1011.3
20260901141909 53 348 0.0 0.0 0.00 0.00 0.00 99 1011.1
20260901141404 53 340 0.0 0.0 0.00 0.00 0.00 99 1011.1
20260901140903 53 341 0.0 0.0 0.00 0.00 0.00 99 1010.7
20260901140402 53 341 0.0 0.0 0.00 0.00 0.00 99 1010.7
20260901135856 54 318 0.0 0.0 0.00 0.00 0.00 99 1010.5
20260901135351 54 318 0.0 0.0 0.00 0.00 0.00 99 1010.3
20260901134847 54 332 0.0 0.0 0.00 0.00 0.00 99 1010.2
20260901134342 54 344 0.0 0.0 0.00 0.00 0.00 99 1010.4
20260901133837 54 341 0.0 0.0 0.00 0.00 0.00 99 1010.3
20260901133336 54 343 0.0 0.0 0.00 0.00 0.00 99 1010.3
20260901132835 53 348 0.0 0.0 0.00 0.00 0.00 99 1010.4
20260901132329 53 347 0.0 1.0 0.00 0.00 0.00 99 1010.4
20260901131824 53 309 0.0 0.0 0.00 0.00 0.00 99 1010.2
20260901131323 53 4 0.0 0.0 0.00 0.00 0.00 99 1010.2
20260901130819 53 8 1.0 1.0 0.00 0.00 0.00 99 1010.0
20260901130319 53 11 0.0 1.0 0.00 0.00 0.00 99 1010.2
20260901125816 53 331 0.0 1.0 0.00 0.00 0.00 99 1010.1
20260901125311 53 170 1.0 2.0 0.00 0.00 0.00 99 1009.9
20260901124806 52 15 1.0 1.0 0.00 0.00 0.00 99 1010.3
20260901124301 52 165 4.0 5.0 0.00 0.00 0.00 99 1010.3
20260901123800 52 261 1.0 1.0 0.00 0.00 0.00 99 1010.3
20260901123255 52 5 0.0 0.0 0.00 0.00 0.00 99 1010.2
20260901122754 53 222 2.0 2.0 0.00 0.00 0.00 99 1010.3
20260901122249 53 23 1.0 1.0 0.00 0.00 0.00 99 1010.4
20260901121748 52 329 0.0 0.0 0.00 0.00 0.00 99 1010.5
20260901121244 52 335 0.0 0.0 0.00 0.00 0.00 99 1010.4
20260901120743 52 296 1.0 1.0 0.00 0.00 0.00 99 1010.7
20260901120238 52 330 0.0 0.0 0.00 0.00 0.00 99 1010.5
20260901115734 52 328 0.0 0.0 0.00 0.00 0.00 99 1010.6
20260901115229 52 328 0.0 0.0 0.00 0.00 0.00 99 1010.4
20260901114726 52 332 0.0 0.0 0.00 0.00 0.00 99 1010.4
20260901114221 52 332 0.0 0.0 0.00 0.00 0.00 99 1010.3
20260901113719 52 331 0.0 0.0 0.00 0.00 0.00 99 1010.4
20260901113215 52 329 0.0 0.0 0.00 0.00 0.00 99 1010.6
20260901112714 52 337 0.0 0.0 0.00 0.00 0.00 99 1010.3
20260901112209 52 338 0.0 0.0 0.00 0.00 0.00 99 1010.5
20260901111709 52 331 0.0 0.0 0.00 0.00 0.00 99 1010.4
20260901111208 52 331 0.0 0.0 0.00 0.00 0.00 99 1010.5
20260901110702 53 314 0.0 0.0 0.00 0.00 0.00 99 1010.4
20260901110157 52 277 0.0 1.0 0.00 0.00 0.00 99 1010.6
20260901105654 52 331 0.0 0.0 0.00 0.00 0.00 99 1010.7
20260901105153 52 336 0.0 0.0 0.00 0.00 0.00 99 1010.5
20260901104650 53 345 0.0 0.0 0.00 0.00 0.00 99 1010.6
20260901104145 52 344 0.0 0.0 0.00 0.00 0.00 99 1010.5
20260901103644 53 337 0.0 0.0 0.00 0.00 0.00 99 1010.8
20260901103140 53 343 0.0 0.0 0.00 0.00 0.00 99 1010.6
20260901102640 53 349 0.0 0.0 0.00 0.00 0.00 99 1010.5
20260901102139 53 328 0.0 0.0 0.00 0.00 0.00 99 1010.4
20260901101635 53 337 0.0 0.0 0.00 0.00 0.00 99 1010.5
20260901101134 53 337 0.0 0.0 0.00 0.00 0.00 99 1010.8
20260901100629 53 336 0.0 0.0 0.00 0.00 0.00 99 1010.5
20260901100124 53 332 0.0 0.0 0.00 0.00 0.00 99 1010.6
20260901095622 53 333 0.0 0.0 0.00 0.00 0.00 99 1010.6
20260901095120 53 335 0.0 0.0 0.00 0.00 0.00 99 1010.6
20260901094615 53 340 0.0 0.0 0.00 0.00 0.00 99 1010.5
20260901094115 53 342 0.0 0.0 0.00 0.00 0.00 99 1010.4
20260901093610 53 331 0.0 0.0 0.00 0.00 0.00 99 1010.6
20260901093104 53 343 0.0 0.0 0.00 0.00 0.00 99 1010.5
20260901092600 53 327 0.0 0.0 0.00 0.00 0.00 99 1010.3
20260901092056 53 326 0.0 0.0 0.00 0.00 0.00 99 1010.2
20260901091551 54 327 0.0 0.0 0.00 0.00 0.00 99 1010.3
20260901091052 54 326 0.0 0.0 0.00 0.00 0.00 99 1010.3
20260901090551 53 329 0.0 0.0 0.00 0.00 0.00 99 1010.4
20260901090047 54 330 0.0 0.0 0.00 0.00 0.00 99 1010.4
20260901085542 54 330 0.0 0.0 0.00 0.00 0.00 99 1010.3
20260901085038 54 329 0.0 0.0 0.00 0.00 0.00 99 1010.2
20260901084534 54 333 0.0 0.0 0.00 0.00 0.00 99 1010.2
20260901084030 54 333 0.0 0.0 0.00 0.00 0.00 99 1010.3
20260901083524 54 334 0.0 0.0 0.00 0.00 0.00 99 1010.2
20260901083022 54 333 0.0 0.0 0.00 0.00 0.00 99 1010.2
20260901082518 54 319 0.0 0.0 0.00 0.00 0.00 99 1010.1
20260901082013 55 332 0.0 0.0 0.00 0.00 0.00 99 1010.1
20260901081508 55 335 0.0 0.0 0.00 0.00 0.00 99 1010.3
20260901081002 55 319 0.0 0.0 0.00 0.00 0.00 99 1010.1
20260901080456 55 318 0.0 0.0 0.00 0.00 0.00 99 1010.1
20260901075956 55 336 0.0 0.0 0.00 0.00 0.00 99 1010.1
20260901075452 55 324 0.0 0.0 0.00 0.00 0.00 99 1010.2
20260901074950 55 341 0.0 0.0 0.00 0.00 0.00 99 1010.1
20260901074445 55 255 1.0 1.0 0.00 0.00 0.00 99 1010.0
20260901073940 55 340 0.0 0.0 0.00 0.00 0.00 99 1010.2
20260901073437 55 330 0.0 0.0 0.00 0.00 0.00 99 1010.3
20260901072937 55 330 0.0 0.0 0.00 0.00 0.00 99 1010.1
20260901072432 55 330 0.0 0.0 0.00 0.00 0.00 99 1010.3
20260901071927 55 330 0.0 0.0 0.00 0.00 0.00 99 1010.2
20260901071426 54 331 0.0 0.0 0.00 0.00 0.00 99 1010.3
20260901070920 55 332 0.0 0.0 0.00 0.00 0.00 99 1010.3
20260901070415 55 331 0.0 0.0 0.00 0.00 0.00 99 1010.5
20260901065914 54 331 0.0 0.0 0.00 0.00 0.00 99 1010.3
20260901065410 54 331 0.0 0.0 0.00 0.00 0.00 99 1010.4
20260901064905 54 331 0.0 0.0 0.00 0.00 0.00 99 1010.4
20260901064401 54 331 0.0 0.0 0.00 0.00 0.00 99 1010.4
20260901063858 55 331 0.0 0.0 0.00 0.00 0.00 99 1010.2
20260901063354 55 331 0.0 0.0 0.00 0.00 0.00 99 1010.4
20260901062850 55 332 0.0 0.0 0.00 0.00 0.00 99 1010.2
20260901062346 54 331 0.0 0.0 0.00 0.00 0.00 99 1010.3
20260901061841 55 332 0.0 0.0 0.00 0.00 0.00 99 1010.3